Showing default

ANGOSAT 1, 43087

Orbit data source: Space-Track

ANGOSAT 1, 43087 is a payload satellite owned by GGPEN (AO) in GEO that was launched on Tue, 26 Dec 2017 UTC via a ZENIT-3SLBF launch vehicle from the Tyuratam Missile And Space Complex (TTMTR). Payloads include a variety of satellites, spacecraft, and rockets equipped with specific instruments for various scientific and technological missions. These include communications satellites like Starlink; space stations such as the ISS; scientific satellites like the Hubble; Earth observation satellites from companies like Planet Labs, Umbra, and HawkEye 360; GPS; miniature CubeSats for education and research; and military/defense satellites.

Not visible in the next 10 days
ANGOSAT 1 details
Identifier
43087, 2017-086A
Orbit
GEO
Last TLE update22 hours ago
Origin
Flag of AOGGPEN (AO / AGO)
ManufacturerRKKE
MissionNon-operational Civil Communications
Bus & MotorYAMAL 100, Unknown motor
Mass1,647 kg wet, ~1,400 kg dry
Launch date (UTC)
Icon of a cake. It is the launch day of the satellite!2017-12-26 (7 years ago)
Launch vehicle
ZENIT-3SLBF
Launch site
Tyuratam Missile And Space Complex (TTMTR)
Object type
Payload
Rocket body
Debris
Shape & HBRBox + 2 Pan, 12 m
Radar Cross Section11.377 m², Large (>1 m²)

Expand to show TLE details & history

TLE from 22 hours ago
0 ANGOSAT 1
1 43087U 17086A   24360.62641314 -.00000286  00000-0  00000-0 0  9993
2 43087   6.2219  73.4897 0020479 164.3625 213.0330  0.99381864 25389
Epoch: 2024-12-25T15:02Z
Definitive object data (Epoch: 2024-12-25T15:02:02.095Z)
Latitude1.86535°
Longitude130.53247°
Altitude36,110.426 km
Speed3.06 km/s
True Right ascension06h 02m 38s
True Declination1° 51' 49"
Sunlit
Object was in daylight at TLE epoch
Visualization TLE readout
Latitude-1.2721°
Longitude101.4574°
Altitude36,124.63 km
Speed3.059 km/s
Apparent Right ascension03h 46m 39s
Apparent Declination-6° 16' 22"
Sunlit
Object is in daylight
Visualization observer readout
Local Sidereal Time12:34:28
Azimuth294.865° NW
Elevation-35.435°
Doppler factor1
Orbital elements
Apogee altitude36,125.844 km
Perigee altitude35,952.112 km
Semi-major axis42,417.115 km
Eccentricity0.0020479
Inclination6.2219°
RAAN73.4897°
Arg. of periapsis164.3625°
True anomaly212.90535°
Mean anomaly213.033°
Eccentric anomaly212.96915°
Mean motion0.24845 °/min
BSTARUnknown
Orbital period1449.01 mins
Loading historical data...
43087 neighbors
Authenticating...
Loading maneuver chart data...
Loading historical data...
Loading historical data...
Loading historical data...
Loading historical data...
Loading historical data...
Loading historical data...
Loading historical data...

ANGOSAT 1 Visibility forecast

Observer location: undefined°, undefined

ANGOSAT 1 is not visible in the next 10 days
Span
Click to sort rows by Start time (UTC) header in descending order
Start Az.
Max El. time (UTC)
Max El. Az.
Max El.
End time (UTC)
End Az.
|